Location: Asheville, NC
(35.6000°N, 82.5500°W)
Time: 18:06:12
(UTC-04:00)

Vanguard 1 - Pass Details

Date: 12 December 2017
Orbit: 650 x 3832 km, 34.2° (Epoch: 16 July)

Event Time Altitude Azimuth Distance (km) Brightness Sun altitude
Rises 09:59:04 0° 241° (WSW) 7,960 14.6 22.0°
Reaches altitude 10° 10:04:44 10° 240° (WSW) 6,835 14.4 22.7°
Maximum altitude 10:26:17 71° 162° (SSE) 2,906 13.2 25.0°
Drops below altitude 10° 10:38:46 10° 82° (E) 4,252 13.6 26.2°
Sets 10:41:25 0° 80° (E) 4,927 13.8 26.4°
